Regional Weather Roundup
Issued by NWS

Home | Current Version | Previous Version | Text Only | Print | Product List | Glossary On
Versions: 1 2 3 4 5 6 7 8 9 10 11 12 13 14 15 16 17 18 19 20 21 22 23 24 25 26 27 28 29 30 31 32 33 34 35 36 37 38 39 40 41 42 43 44 45 46 47 48 49 50
000
ASCA42 TJSJ 020910
RWRPR
PUERTO RICO/U.S. VIRGIN ISLANDS HOURLY WEATHER ROUNDUP
NATIONAL WEATHER SERVICE SAN JUAN PR
500 AM AST THU APR 02 2015

PRZ001-004-021000-
PUERTO RICO

CITY           SKY/WX    TMP DP  RH WIND       PRES   REMARKS
SAN JUAN LMM   PTCLDY    75  72  88 SE5       30.03R
PONCE          MOCLDY    73  66  78 CALM      29.97S
CEIBA          CLOUDY    75  70  83 E5        30.05R
$$

PRZ006-007-021000-
U.S. VIRGIN ISLANDS

CITY           SKY/WX    TMP DP  RH WIND       PRES   REMARKS
$$

HOURLY WEATHER ROUNDUP FOR THE NEWS MEDIA

CITY           SKY/WX    TMP DP  RH WIND       PRES   REMARKS
ORLANDO        CLEAR     67  63  87 N5        30.13S
NEW YORK       PTCLDY    34  25  69 S3        30.25R
NEWARK         PTCLDY    37  22  54 SW5       30.24R WCI  33
CHICAGO        MOCLDY    56  33  42 S16       29.74F
HARTFORD       FAIR      26  19  74 CALM      30.21R
BOSTON         PTCLDY    34  11  38 W5        30.21R WCI  30
DALLAS         MOCLDY    71  64  78 S15G21    29.83S
PHILADELPHIA   PTCLDY    38  27  64 S3        30.26S
LOS ANGELES    CLEAR     56  48  74 CALM      29.96S
WASHINGTON DC  CLEAR     40  27  59 S7        30.23S



USA.gov is the U.S. government's official web portal to all federal, state and local government web resources and services.